CST,Max TemperatureF,Mean TemperatureF,Min TemperatureF,Max Dew PointF,MeanDew PointF,Min DewpointF,Max Humidity, Mean Humidity, Min Humidity, Max Sea Level PressureIn, Mean Sea Level PressureIn, Min Sea Level PressureIn, Max VisibilityMiles, Mean VisibilityMiles, Min VisibilityMiles, Max Wind SpeedMPH, Mean Wind SpeedMPH, Max Gust SpeedMPH,PrecipitationIn, CloudCover, Events, WindDirDegrees
2014-1-1,3,0,-4,-2,-6,-11,78,72,66,30.42,30.37,30.33,10,10,10,12,10,17,0.00,8,,21
2014-1-2,3,-6,-16,-2,-12,-24,84,73,60,30.47,30.42,30.36,10,10,10,10,6,,0.00,1,,328
2014-1-3,30,6,-16,25,7,-22,86,78,67,30.36,29.85,29.49,10,8,1,34,15,43,0.00,4,Snow,172
2014-1-4,35,18,1,32,11,-6,93,77,67,30.24,29.90,29.47,10,9,3,28,17,38,0.00,4,Snow,297
2014-1-5,1,-8,-16,-6,-14,-26,78,68,58,30.37,30.32,30.23,10,10,2,26,15,36,0.00,1,,307
2014-1-6,-9,-14,-18,-17,-22,-27,77,68,63,30.32,30.27,30.18,10,9,4,23,16,28,0.00,1,,277
2014-1-7,8,-2,-11,-4,-9,-17,78,70,57,30.25,30.17,30.11,10,10,10,10,6,,0.00,1,,243
2014-1-8,3,-3,-9,-6,-9,-15,85,74,66,30.45,30.39,30.26,10,10,10,8,4,,0.00,0,,303
2014-1-9,23,9,-5,18,7,-11,93,79,62,30.41,30.16,29.92,10,9,4,20,10,24,0.00,4,,152
2014-1-10,33,27,21,32,27,19,100,94,86,29.90,29.67,29.50,5,2,0,22,11,26,0.00,8,Fog-Snow,165
2014-1-11,32,24,17,30,24,14,100,92,80,29.73,29.62,29.49,10,6,2,23,9,26,0.00,5,,256
2014-1-12,37,30,23,34,31,23,100,84,75,29.65,29.48,29.39,10,10,10,23,12,30,0.00,1,,201
2014-1-13,33,30,26,32,28,21,93,83,75,29.73,29.63,29.51,10,10,10,18,10,25,0.00,3,Snow,252
2014-1-14,33,20,8,32,19,3,93,84,73,30.13,29.83,29.47,10,6,0,32,16,41,0.00,6,Snow,300
2014-1-15,26,11,-4,21,8,-8,93,80,68,30.16,29.92,29.48,10,9,2,26,11,32,0.00,4,Snow,218
2014-1-16,35,20,5,32,15,0,93,81,68,29.89,29.63,29.42,10,6,0,36,19,43,0.01,6,Snow,290
2014-1-17,17,9,1,12,2,-4,86,78,67,30.05,29.97,29.77,10,10,5,20,13,24,0.00,3,Snow,282
2014-1-18,21,14,6,18,13,3,93,81,68,29.98,29.74,29.48,10,7,1,20,13,31,0.00,4,Snow,142
2014-1-19,37,28,19,32,25,16,93,83,74,29.79,29.62,29.47,10,10,10,21,14,29,0.00,1,,246
2014-1-20,32,16,0,30,15,-9,93,80,61,30.42,30.02,29.76,10,7,1,23,12,30,0.00,6,Snow,328
2014-1-21,12,-2,-16,5,-9,-24,85,73,65,30.46,30.27,29.99,10,9,2,17,9,18,0.00,4,Snow,211
2014-1-22,14,4,-5,10,-1,-15,86,75,65,30.48,30.14,29.94,10,6,0,28,16,38,0.00,6,Snow,301
2014-1-23,5,-6,-14,-2,-14,-22,85,72,65,30.73,30.58,30.25,10,10,10,20,12,20,0.00,0,,269
2014-1-24,35,20,6,34,19,-4,93,76,57,30.22,29.74,29.52,10,9,1,33,20,40,0.02,6,Rain-Snow,239
2014-1-25,32,18,5,23,2,-6,86,64,46,29.95,29.79,29.48,10,9,0,28,20,37,0.00,3,Snow,287
2014-1-26,21,8,-4,19,8,-11,93,81,71,30.11,29.61,29.36,10,4,0,41,20,58,0.00,8,Snow,285
2014-1-27,-4,-9,-14,-11,-16,-22,77,70,65,30.43,30.35,30.12,10,8,2,31,20,38,0.00,4,Snow,286
2014-1-28,3,-6,-16,-6,-13,-24,84,73,66,30.39,30.28,30.13,10,10,5,16,7,18,0.00,0,,246
2014-1-29,33,14,-5,21,6,-13,84,66,58,30.13,29.85,29.55,10,10,10,24,11,34,0.00,1,,194
2014-1-30,32,16,0,28,12,-8,93,77,60,30.08,29.68,29.42,10,6,0,30,12,36,0.00,4,Snow,303
2014-1-31,12,2,-9,1,-6,-15,85,74,62,30.17,30.09,30.01,10,10,10,10,6,,0.00,0,,197